Time,TemperatureF,DewpointF,PressureIn,WindDirection,WindDirectionDegrees,WindSpeedMPH,WindSpeedGustMPH,Humidity,HourlyPrecipIn,Conditions,Clouds,dailyrainin,SoftwareType,DateUTC
2013-10-22 00:09:00,60.1,58.0,30.02,SE,125,0.0,0.0,91,0.00,,,0.00,weatherlink.com 1.10,2013-10-22 04:09:00,
2013-10-22 00:24:00,59.9,57.0,30.01,SE,125,0.0,0.0,91,0.00,,,0.00,weatherlink.com 1.10,2013-10-22 04:24:00,
2013-10-22 00:39:00,59.4,57.0,30.01,SE,125,0.0,0.0,91,0.00,,,0.00,weatherlink.com 1.10,2013-10-22 04:39:00,
2013-10-22 00:54:00,59.1,57.0,30.02,SE,125,0.0,0.0,92,0.00,,,0.00,weatherlink.com 1.10,2013-10-22 04:54:00,
2013-10-22 01:09:00,59.2,57.0,30.01,SE,125,0.0,0.0,93,0.00,,,0.00,weatherlink.com 1.10,2013-10-22 05:09:00,
2013-10-22 01:24:00,58.9,57.0,30.01,SE,125,0.0,0.0,93,0.00,,,0.00,weatherlink.com 1.10,2013-10-22 05:24:00,
2013-10-22 01:39:00,58.8,57.0,30.02,SE,125,0.0,0.0,93,0.00,,,0.00,weatherlink.com 1.10,2013-10-22 05:39:00,
2013-10-22 01:54:00,58.8,57.0,30.02,SE,125,0.0,0.0,93,0.00,,,0.00,weatherlink.com 1.10,2013-10-22 05:54:00,
2013-10-22 02:09:00,58.7,57.0,30.01,SE,125,0.0,0.0,93,0.00,,,0.00,weatherlink.com 1.10,2013-10-22 06:09:00,
2013-10-22 02:24:00,58.9,57.0,30.01,SE,125,0.0,0.0,94,0.00,,,0.00,weatherlink.com 1.10,2013-10-22 06:24:00,
2013-10-22 02:39:00,58.8,57.0,30.00,SE,125,0.0,0.0,94,0.00,,,0.00,weatherlink.com 1.10,2013-10-22 06:39:00,
2013-10-22 02:54:00,58.9,57.0,30.01,SE,125,0.0,0.0,94,0.00,,,0.00,weatherlink.com 1.10,2013-10-22 06:54:00,
2013-10-22 03:09:00,59.0,57.0,30.01,SE,125,0.0,0.0,94,0.00,,,0.00,weatherlink.com 1.10,2013-10-22 07:09:00,
2013-10-22 03:24:00,58.9,58.0,30.00,SE,125,0.0,0.0,95,0.00,,,0.00,weatherlink.com 1.10,2013-10-22 07:24:00,
2013-10-22 03:39:00,59.1,58.0,30.01,SE,125,0.0,0.0,95,0.00,,,0.00,weatherlink.com 1.10,2013-10-22 07:39:00,
2013-10-22 03:54:00,59.0,58.0,30.00,SE,125,0.0,0.0,95,0.00,,,0.00,weatherlink.com 1.10,2013-10-22 07:54:00,
2013-10-22 04:09:00,59.0,58.0,29.99,SE,125,0.0,0.0,95,0.00,,,0.00,weatherlink.com 1.10,2013-10-22 08:09:00,
2013-10-22 04:24:00,59.1,58.0,29.99,SE,125,0.0,0.0,96,0.00,,,0.00,weatherlink.com 1.10,2013-10-22 08:24:00,
2013-10-22 04:39:00,59.3,58.0,29.98,SE,125,0.0,0.0,96,0.00,,,0.00,weatherlink.com 1.10,2013-10-22 08:39:00,
2013-10-22 04:54:00,59.3,58.0,29.97,SE,125,0.0,1.0,96,0.00,,,0.00,weatherlink.com 1.10,2013-10-22 08:54:00,
2013-10-22 05:09:00,59.3,58.0,29.97,SE,125,0.0,0.0,96,0.00,,,0.00,weatherlink.com 1.10,2013-10-22 09:09:00,
2013-10-22 05:24:00,59.2,58.0,29.97,SE,125,0.0,0.0,96,0.00,,,0.00,weatherlink.com 1.10,2013-10-22 09:24:00,
2013-10-22 05:39:00,59.1,58.0,29.97,SE,125,0.0,1.0,96,0.00,,,0.00,weatherlink.com 1.10,2013-10-22 09:39:00,
2013-10-22 05:54:00,59.2,58.0,29.97,NW,315,1.0,2.0,95,0.00,,,0.00,weatherlink.com 1.10,2013-10-22 09:54:00,
2013-10-22 06:09:00,58.9,58.0,29.97,NW,315,0.0,0.0,95,0.00,,,0.00,weatherlink.com 1.10,2013-10-22 10:09:00,
2013-10-22 06:24:00,58.9,58.0,29.98,NW,315,0.0,1.0,95,0.00,,,0.00,weatherlink.com 1.10,2013-10-22 10:24:00,
2013-10-22 06:39:00,58.9,58.0,29.97,NW,315,0.0,0.0,96,0.00,,,0.00,weatherlink.com 1.10,2013-10-22 10:39:00,
2013-10-22 06:54:00,59.0,58.0,29.98,NW,314,0.0,1.0,96,0.00,,,0.00,weatherlink.com 1.10,2013-10-22 10:54:00,
2013-10-22 07:09:00,59.0,58.0,29.98,NW,312,0.0,0.0,96,0.00,,,0.00,weatherlink.com 1.10,2013-10-22 11:09:00,
2013-10-22 07:24:00,59.0,58.0,29.98,NW,313,0.0,0.0,96,0.00,,,0.00,weatherlink.com 1.10,2013-10-22 11:24:00,
2013-10-22 07:39:00,59.0,58.0,29.97,NW,313,0.0,1.0,96,0.00,,,0.00,weatherlink.com 1.10,2013-10-22 11:39:00,
2013-10-22 07:54:00,59.1,58.0,29.99,NW,310,0.0,1.0,96,0.00,,,0.00,weatherlink.com 1.10,2013-10-22 11:54:00,
2013-10-22 08:09:00,59.2,58.0,29.99,NW,310,0.0,0.0,96,0.00,,,0.00,weatherlink.com 1.10,2013-10-22 12:09:00,
2013-10-22 08:24:00,59.3,58.0,29.99,NW,310,0.0,0.0,96,0.00,,,0.00,weatherlink.com 1.10,2013-10-22 12:24:00,
2013-10-22 08:39:00,59.4,58.0,29.98,NW,310,0.0,0.0,96,0.00,,,0.00,weatherlink.com 1.10,2013-10-22 12:39:00,
2013-10-22 08:54:00,59.7,58.0,29.98,NW,310,0.0,0.0,95,0.00,,,0.00,weatherlink.com 1.10,2013-10-22 12:54:00,
2013-10-22 09:09:00,60.3,59.0,29.98,NW,310,0.0,1.0,94,0.00,,,0.00,weatherlink.com 1.10,2013-10-22 13:09:00,
2013-10-22 09:25:00,61.0,59.0,29.99,SW,218,1.0,2.0,93,0.00,,,0.00,weatherlink.com 1.10,2013-10-22 13:25:00,
2013-10-22 09:40:00,62.1,60.0,29.99,NW,308,1.0,2.0,91,0.00,,,0.00,weatherlink.com 1.10,2013-10-22 13:40:00,
2013-10-22 09:55:00,62.9,59.0,30.00,NNW,330,1.0,2.0,87,0.00,,,0.00,weatherlink.com 1.10,2013-10-22 13:55:00,
2013-10-22 10:10:00,63.2,59.0,29.99,NW,324,1.0,2.0,86,0.00,,,0.00,weatherlink.com 1.10,2013-10-22 14:10:00,
2013-10-22 10:25:00,63.4,59.0,29.98,NNW,333,0.0,2.0,84,0.00,,,0.00,weatherlink.com 1.10,2013-10-22 14:25:00,
2013-10-22 10:40:00,64.0,58.0,29.98,NNW,334,0.0,1.0,81,0.00,,,0.00,weatherlink.com 1.10,2013-10-22 14:40:00,
2013-10-22 10:55:00,64.4,58.0,29.98,NW,310,0.0,1.0,80,0.00,,,0.00,weatherlink.com 1.10,2013-10-22 14:55:00,
2013-10-22 11:10:00,65.0,58.0,29.95,NNE,13,1.0,2.0,79,0.00,,,0.00,weatherlink.com 1.10,2013-10-22 15:10:00,
2013-10-22 11:25:00,65.2,59.0,29.96,NNE,13,1.0,1.0,79,0.00,,,0.00,weatherlink.com 1.10,2013-10-22 15:25:00,
2013-10-22 11:55:00,65.1,60.0,29.95,NW,311,1.0,2.0,82,0.00,,,0.00,weatherlink.com 1.10,2013-10-22 15:55:00,
2013-10-22 12:10:00,65.6,59.0,29.95,NNW,329,1.0,2.0,80,0.00,,,0.00,weatherlink.com 1.10,2013-10-22 16:10:00,
2013-10-22 12:25:00,65.9,59.0,29.95,NW,326,1.0,2.0,79,0.00,,,0.00,weatherlink.com 1.10,2013-10-22 16:25:00,
2013-10-22 12:40:00,66.1,59.0,29.95,NW,306,1.0,2.0,77,0.00,,,0.00,weatherlink.com 1.10,2013-10-22 16:40:00,
2013-10-22 12:55:00,66.5,59.0,29.94,NW,317,0.0,2.0,78,0.00,,,0.00,weatherlink.com 1.10,2013-10-22 16:55:00,
2013-10-22 13:10:00,67.3,60.0,29.93,NW,326,0.0,2.0,76,0.00,,,0.00,weatherlink.com 1.10,2013-10-22 17:10:00,
2013-10-22 13:25:00,67.7,59.0,29.93,NNW,328,1.0,2.0,74,0.00,,,0.00,weatherlink.com 1.10,2013-10-22 17:25:00,
2013-10-22 13:40:00,67.5,60.0,29.92,NW,320,3.0,4.0,77,0.00,,,0.00,weatherlink.com 1.10,2013-10-22 17:40:00,
2013-10-22 13:55:00,67.9,60.0,29.91,NW,315,2.0,3.0,75,0.00,,,0.00,weatherlink.com 1.10,2013-10-22 17:55:00,
2013-10-22 14:10:00,68.3,60.0,29.92,WSW,244,0.0,2.0,76,0.00,,,0.00,weatherlink.com 1.10,2013-10-22 18:10:00,
2013-10-22 14:25:00,68.1,60.0,29.91,WSW,250,0.0,1.0,75,0.00,,,0.00,weatherlink.com 1.10,2013-10-22 18:25:00,
2013-10-22 14:55:00,67.9,60.0,29.90,WNW,284,0.0,0.0,76,0.00,,,0.00,weatherlink.com 1.10,2013-10-22 18:55:00,
2013-10-22 15:10:00,67.8,60.0,29.89,WNW,286,0.0,1.0,76,0.00,,,0.00,weatherlink.com 1.10,2013-10-22 19:10:00,
2013-10-22 15:25:00,67.8,60.0,29.89,West,260,0.0,1.0,77,0.00,,,0.00,weatherlink.com 1.10,2013-10-22 19:25:00,
2013-10-22 15:40:00,67.9,60.0,29.89,West,262,0.0,0.0,76,0.00,,,0.00,weatherlink.com 1.10,2013-10-22 19:40:00,
2013-10-22 15:55:00,67.5,61.0,29.88,West,264,1.0,1.0,79,0.00,,,0.00,weatherlink.com 1.10,2013-10-22 19:55:00,
2013-10-22 16:10:00,66.6,61.0,29.90,WSW,251,0.0,0.0,83,0.00,,,0.00,weatherlink.com 1.10,2013-10-22 20:10:00,
2013-10-22 16:25:00,66.0,62.0,29.89,WSW,251,0.0,1.0,87,0.00,,,0.00,weatherlink.com 1.10,2013-10-22 20:25:00,
2013-10-22 16:40:00,65.3,62.0,29.89,WSW,251,0.0,1.0,89,0.00,,,0.00,weatherlink.com 1.10,2013-10-22 20:40:00,
2013-10-22 16:55:00,64.7,62.0,29.89,WSW,251,0.0,0.0,91,0.00,,,0.00,weatherlink.com 1.10,2013-10-22 20:55:00,
2013-10-22 17:11:00,64.6,63.0,29.89,SW,215,0.0,0.0,93,0.01,,,0.01,weatherlink.com 1.10,2013-10-22 21:11:00,
2013-10-22 17:26:00,64.5,63.0,29.89,SW,215,0.0,0.0,94,0.03,,,0.03,weatherlink.com 1.10,2013-10-22 21:26:00,
2013-10-22 17:41:00,64.0,62.0,29.88,East,101,2.0,2.0,94,0.03,,,0.03,weatherlink.com 1.10,2013-10-22 21:41:00,
2013-10-22 17:56:00,63.4,62.0,29.88,ENE,66,0.0,1.0,95,0.03,,,0.04,weatherlink.com 1.10,2013-10-22 21:56:00,
2013-10-22 18:11:00,63.2,62.0,29.89,ENE,63,0.0,1.0,95,0.03,,,0.04,weatherlink.com 1.10,2013-10-22 22:11:00,
2013-10-22 18:26:00,63.1,62.0,29.88,ENE,64,0.0,0.0,95,0.02,,,0.05,weatherlink.com 1.10,2013-10-22 22:26:00,
2013-10-22 18:41:00,62.5,61.0,29.89,ENE,63,0.0,0.0,96,0.02,,,0.05,weatherlink.com 1.10,2013-10-22 22:41:00,
2013-10-22 18:56:00,62.6,62.0,29.89,ENE,63,0.0,0.0,96,0.01,,,0.05,weatherlink.com 1.10,2013-10-22 22:56:00,
2013-10-22 19:11:00,62.6,62.0,29.88,ENE,63,0.0,0.0,96,0.01,,,0.05,weatherlink.com 1.10,2013-10-22 23:11:00,
2013-10-22 19:26:00,62.6,62.0,29.89,ENE,63,0.0,0.0,96,0.00,,,0.05,weatherlink.com 1.10,2013-10-22 23:26:00,
2013-10-22 19:41:00,62.6,62.0,29.89,ENE,63,0.0,0.0,97,0.00,,,0.05,weatherlink.com 1.10,2013-10-22 23:41:00,
2013-10-22 19:56:00,62.4,62.0,29.89,ENE,63,0.0,0.0,97,0.01,,,0.06,weatherlink.com 1.10,2013-10-22 23:56:00,
2013-10-22 20:11:00,62.1,61.0,29.89,ENE,63,0.0,0.0,96,0.01,,,0.06,weatherlink.com 1.10,2013-10-23 00:11:00,
2013-10-22 20:26:00,62.2,61.0,29.88,ENE,61,0.0,0.0,97,0.02,,,0.07,weatherlink.com 1.10,2013-10-23 00:26:00,
2013-10-22 20:41:00,62.3,62.0,29.87,ENE,61,0.0,0.0,97,0.02,,,0.07,weatherlink.com 1.10,2013-10-23 00:41:00,
2013-10-22 20:56:00,62.4,62.0,29.87,ENE,60,0.0,0.0,97,0.01,,,0.07,weatherlink.com 1.10,2013-10-23 00:56:00,
2013-10-22 21:11:00,62.5,62.0,29.86,ENE,62,0.0,0.0,97,0.01,,,0.07,weatherlink.com 1.10,2013-10-23 01:11:00,
2013-10-22 21:26:00,62.6,62.0,29.87,ENE,58,0.0,0.0,97,0.00,,,0.07,weatherlink.com 1.10,2013-10-23 01:26:00,
2013-10-22 21:41:00,62.4,62.0,29.86,ENE,58,0.0,0.0,97,0.00,,,0.07,weatherlink.com 1.10,2013-10-23 01:41:00,
2013-10-22 21:56:00,62.4,62.0,29.86,ENE,58,0.0,0.0,97,0.00,,,0.07,weatherlink.com 1.10,2013-10-23 01:56:00,
2013-10-22 22:11:00,62.4,62.0,29.86,ENE,58,0.0,0.0,97,0.00,,,0.07,weatherlink.com 1.10,2013-10-23 02:11:00,
2013-10-22 22:26:00,62.4,62.0,29.86,ENE,58,0.0,0.0,97,0.00,,,0.07,weatherlink.com 1.10,2013-10-23 02:26:00,
2013-10-22 22:41:00,62.5,62.0,29.86,ENE,58,0.0,0.0,98,0.01,,,0.08,weatherlink.com 1.10,2013-10-23 02:41:00,
2013-10-22 22:56:00,62.4,62.0,29.86,SE,132,0.0,2.0,97,0.03,,,0.10,weatherlink.com 1.10,2013-10-23 02:56:00,
2013-10-22 23:11:00,61.2,60.0,29.86,SE,132,0.0,1.0,97,0.05,,,0.12,weatherlink.com 1.10,2013-10-23 03:11:00,
2013-10-22 23:26:00,60.9,60.0,29.85,WSW,248,0.0,1.0,97,0.05,,,0.12,weatherlink.com 1.10,2013-10-23 03:26:00,
2013-10-22 23:41:00,59.7,59.0,29.86,SSE,150,0.0,1.0,96,0.05,,,0.13,weatherlink.com 1.10,2013-10-23 03:41:00,
2013-10-22 23:56:00,59.7,59.0,29.85,SSE,147,0.0,1.0,97,0.04,,,0.14,weatherlink.com 1.10,2013-10-23 03:56:00,